Flag for U.S.A. Weather past 2 weeks in Tacoma, Washington, U.S.A.

Now
43 °F

Low clouds.


Feels Like: 40 °F
Forecast: 41 / 47 °F
Wind: 5 mph from North

Location: Tacoma Narrows Airport

Current Time: Jan 31, 2015 at 8:21:19 PM

Latest Report: Jan 31, 2015 at 7:53 PM


Visibility: 9 mi

Pressure: 30.16 "Hg

Humidity: 89%

Dew point: 40 °F

Location of TacomaLocation

Historic Weather in Tacoma — Graph

°F

Tacoma temperature yesterday

Maximum temperature yesterday: 44 °F (at 2:53 PM)
Minimum temperature yesterday: 37 °F (at 1:53 AM)
Average temperature yesterday: 41 °F

Past Weeks' High & Low Weather Summary

 TemperatureHumidityPressure
High61 °F (Jan 26, 1:53 PM)100% (Jan 21, 8:53 AM)30.46 "Hg (Jan 21, 8:53 AM)
Low35 °F (Jan 21, 5:00 AM)60% (Jan 26, 2:53 PM)29.61 "Hg (Jan 17, 10:53 PM)
Average46 °F89%30.22 "Hg
* Reported Jan 16 6:53 PM — Jan 31 6:53 PM, Tacoma, Weather by CustomWeather, © 2014

Note: Actual official high and low records may vary slightly from our data, if they occured in-between our weather recording intervals... More about our weather records

Advertising

Tacoma weather history for previous 24 hours

 ConditionsComfort  
Time TempWeatherWind HumidityBarometerVisibility
6:53 PM
Jan 31
43 °FLow clouds.3 mph89%30.16 "Hg10 mi
5:53 PM42 °FFog.5 mph89%30.18 "Hg6 mi
4:53 PM43 °FFog.No wind89%30.18 "Hg5 mi
3:53 PM43 °FFog.3 mph89%30.18 "Hg5 mi
2:53 PM43 °FFog.5 mph89%30.19 "Hg4 mi
1:53 PM42 °FFog.3 mph92%30.20 "Hg2 mi
12:53 PM42 °FFog.5 mph96%30.22 "Hg1 mi
11:53 AM42 °FFog.No wind92%30.23 "Hg1 mi
10:53 AM41 °FFog.3 mph96%30.25 "Hg0 mi
9:53 AM40 °FFog.3 mph100%30.24 "Hg0 mi
8:53 AM40 °FFog.5 mph97%30.25 "Hg0 mi
7:53 AM40 °FFog.3 mph97%30.24 "Hg1 mi
6:53 AM40 °FFog.3 mph97%30.26 "Hg1 mi
6:01 AM40 °FFog.3 mph100%30.24 "Hg1 mi
4:53 AM40 °FFog.6 mph97%30.26 "Hg1 mi
4:04 AM40 °FFog.No wind97%30.25 "Hg1 mi
2:53 AM40 °FFog.No wind97%30.27 "Hg0 mi
1:53 AM40 °FFog.3 mph100%30.27 "Hg0 mi
12:53 AM39 °FFog.5 mph96%30.26 "Hg0 mi
11:53 PM
Jan 30
39 °FFog.3 mph100%30.26 "Hg0 mi
10:53 PM40 °FFog.3 mph100%30.26 "Hg0 mi
9:53 PM40 °FFog.3 mph97%30.26 "Hg0 mi
8:53 PM40 °FFog.No wind100%30.27 "Hg0 mi
Weather by CustomWeather, © 2014

See weather overviewHow to use our weather pages